STARLINK-11706, 63753

Orbit data source: Space-Track

STARLINK-11706, 63753 is a payload satellite owned by SpaceX/Seattle (US) in LEO that was launched on Tue, 29 Apr 2025 UTC via an FALCON 9 launch vehicle from the Air Force Eastern Test Range (AFETR). Payload-class satellites include a variety of spacecraft equipped with specific instruments for various scientific and technological missions. These include communications satellites like Starlink; space stations such as the ISS; scientific satellites like the Hubble; Earth observation satellites from companies like Planet Labs, Umbra, and HawkEye 360; GPS; miniature CubeSats for education and research; and military/defense satellites.

Loading next visibility...
Identifier
63753, 2025-089C
Orbit
LEO
Country
Flag of USUS
Related business
Manufacturer
SpaceX/Seattle
Mission
Operational Commercial Communications
Bus & Motor
STARLINK V2MD, Unknown motor
Mass
960 kg wet, ~910 kg dry
Launch date (UTC)
2025-04-29 (1 year ago)
Launch vehicle
FALCON 9
Launch site
Air Force Eastern Test Range (AFETR)
Object type
Payload
Rocket body
Debris
Shape & HBR
Box + 2 Pan, 18.1 m
Radar Cross Section
36.964 m², Large (>1 m²)

Expand to show TLE details & history
Last TLE update: 21 hours ago

TLE from 21 hours ago
0 STARLINK-11706
1 63753U 25089C   26171.02679026  .00204554  00000-0  15560-2 0  9996
2 63753  43.0015  35.1087 0002697 284.8909  75.1660 15.70879751 66239
Epoch: 2026-06-20T00:38Z
TLE epoch observation values (Epoch: 2026-06-20T00:38:34.678Z)
Latitude
-0.00001°
Longitude
117.21688°
Altitude
355.688 km
Speed
7.698 km/s
True Right ascension
02h 20m 26s
True Declination
0° 00' 00"
Sunlit
Object was in daylight at epoch
Visualization orbit readout
Latitude
Unknown
Longitude
Unknown
Altitude
Unknown
Speed
Unknown
Apparent Right ascension
Unknown
Apparent Declination
Unknown
Sunlit
N/A
Visualization observer readout
Local Sidereal Time
08:32:53
Azimuth
Unknown
Elevation
Unknown
Doppler factor
Unknown
Orbital elements
Apogee altitude
360.18 km
Perigee altitude
356.546 km
Semi-major axis
6,736.5 km
Eccentricity
0.00027
Inclination
43.0015°
RAAN
35.1087°
Arg. of periapsis
284.8909°
True anomaly
75.19588°
Mean anomaly
75.166°
Eccentric anomaly
75.18094°
Mean motion
3.92547 °/min
Orbital period
91.71 mins
BSTAR
0.001556
Loading maneuver chart data...
Computing Atmospheric mass density...
Loading historical data...
Loading historical data...
Loading historical data...
Loading historical data...
Loading historical data...
Loading historical data...
Loading historical data...

Documentation

Showing up to 5 results
|